This is the latest recevied weather packets stored in our database for station/object KB4NWJ. If no packets are shown the sender has not sent any weather packets the latest 10 day(s).
| Time | Temp. | Humidity | Pressure | Rain* | Wind** | Luminosity | Snow |
|---|---|---|---|---|---|---|---|
| 1777491791 | 26.11° C | 76% | 1013.6 hPa | 0 mm | - | 416 W/m² | - |
| 1777491487 | 25.56° C | 77% | 1013.6 hPa | 0 mm | - | 622 W/m² | - |
| 1777491184 | 25.56° C | 77% | 1013.8 hPa | 0 mm | - | 275 W/m² | - |
| 1777490880 | 25.56° C | 76% | 1013.6 hPa | 0 mm | - | 242 W/m² | - |
| 1777490576 | 26.11° C | 75% | 1013.7 hPa | 0 mm | - | 229 W/m² | - |
| 1777490272 | 26.11° C | 75% | 1014 hPa | 0 mm | - | 263 W/m² | - |
| 1777489970 | 26.11° C | 75% | 1014 hPa | 0 mm | - | 260 W/m² | - |
| 1777489668 | 26.67° C | 72% | 1014 hPa | 0 mm | - | 290 W/m² | - |
| 1777489364 | 26.67° C | 73% | 1014 hPa | 0 mm | - | 224 W/m² | - |
| 1777489061 | 26.67° C | 73% | 1013.9 hPa | 0 mm | - | 378 W/m² | - |
| 1777488758 | 26.67° C | 72% | 1014 hPa | 0 mm | - | 419 W/m² | - |
| 1777488456 | 26.67° C | 74% | 1014.2 hPa | 0 mm | - | 483 W/m² | - |
| 1777488154 | 26.11° C | 72% | 1013.8 hPa | 0 mm | - | 598 W/m² | - |
| 1777487852 | 26.11° C | 73% | 1013.9 hPa | 0 mm | - | 568 W/m² | - |
| 1777487550 | 25.56° C | 74% | 1014 hPa | 0 mm | - | 267 W/m² | - |
| 1777487246 | 26.11° C | 74% | 1014.1 hPa | 0 mm | - | 402 W/m² | - |
| 1777486942 | 25.56° C | 72% | 1014.1 hPa | 0 mm | - | 328 W/m² | - |
| 1777486639 | 25.56° C | 74% | 1014 hPa | 0 mm | - | 206 W/m² | - |
| 1777486337 | 25.56° C | 74% | 1014.2 hPa | 0 mm | - | 283 W/m² | - |
| 1777486034 | 25.56° C | 74% | 1014.3 hPa | 0 mm | - | 201 W/m² | - |
| 1777485730 | 26.11° C | 72% | 1014.2 hPa | 0 mm | - | 208 W/m² | - |
| 1777485426 | 26.67° C | 71% | 1014.2 hPa | 0 mm | - | 297 W/m² | - |
| 1777485121 | 26.67° C | 73% | 1013.9 hPa | 0 mm | - | 235 W/m² | - |
| 1777484819 | 26.67° C | 74% | 1014.2 hPa | 0 mm | - | 718 W/m² | - |
| 1777484515 | 26.11° C | 75% | 1014.3 hPa | 0 mm | - | 286 W/m² | - |
* Rain latest hour (hover to see other rain measurements)
** Current wind speed in m/s (hover to see current wind gust speed)